Hourly Weather Roundup
Issued by NWS Central Illinois

Home | Current Version | Previous Version | Text Only | Print | Product List | Glossary On
Versions: 1 2 3 4 5 6 7 8 9 10 11 12 13 14 15 16 17 18 19 20 21 22 23 24 25 26 27 28 29 30 31 32 33 34 35 36 37 38 39 40 41 42 43 44 45 46 47 48 49 50
724
NZUS43 KILX 080810
HWRILX

AREA WEATHER ROUNDUP
NATIONAL WEATHER SERVICE, LINCOLN IL
200 AM CST MON FEB 08 2016


CITY           SKY/WX    TMP DP  RH WIND       PRES   REMARKS
BLOOMINGTON    CLEAR     32  29  89 W8        29.71F WCI  25
CHAMPAIGN      PTCLDY    32  29  88 W9        29.72F WCI  24
DANVILLE       CLOUDY    33  29  86 SW5       29.69S WCI  28
DECATUR        PTCLDY    35  29  78 W9        29.73F WCI  28
EFFINGHAM      CLOUDY    36  34  94 W8        29.77F WCI  29
FLORA          CLOUDY    39  34  83 W8        29.78F WCI  33
GALESBURG      MIX PCPN  32  31  95 W17G23    29.71S WCI  21
JACKSONVILLE   CLOUDY    37  32  85 W9        29.77S WCI  30
LACON          CLOUDY    33  28  83 W7        29.69F WCI  27
LAWRENCEVILLE  CLOUDY    36  33  89 W6        29.78F WCI  31
LITCHFIELD     CLOUDY    35  29  79 W14G22    29.78S WCI  25
$$


CITY           SKY/WX    TMP DP  RH WIND       PRES   REMARKS
LINCOLN        CLEAR     34  29  83 W3        29.73F
MACOMB         CLOUDY    33  32  95 W16       29.76F FOG     WCI  23
MATTOON        PTCLDY    34  30  85 SW6       29.73F WCI  29
MT CARMEL AP   MOCLDY    34  32  93 SW3       29.77F
OLNEY-NOBLE AP PTCLDY    34  34 100 CALM      29.78F
PARIS          MOCLDY    33  32  96 SW7       29.74S WCI  27
PEORIA         CLOUDY    33  28  81 W7        29.72F WCI  27
PONTIAC        CLEAR     33  30  90 W9        29.70F WCI  25
RANTOUL        MOCLDY    35  32  88 W6        29.71S WCI  30
ROBINSON       PTCLDY    32  31  95 W5        29.78F WCI  27
SPRINGFIELD    CLOUDY    35  30  82 W9        29.75F WCI  28
TAYLORVILLE    CLOUDY    34  32  93 W13G18    29.76S WCI  25
$$

...REGIONAL REPORTS...


CITY           SKY/WX    TMP DP  RH WIND       PRES   REMARKS
CHICAGO O`HARE PTCLDY    31  26  82 SW9       29.64F WCI  23
KANKAKEE       CLEAR     33  27  80 W6        29.69S WCI  27
MOLINE         CLOUDY    32  25  75 NW20G26   29.70S WCI  20
MOUNT STERLING LGT SNOW  33  31  96 W9        29.76S WCI  25
MOUNT VERNON   CLOUDY    39  27  60 W7        29.80S WCI  34
PITTSFIELD     CLOUDY    36  32  87 W12       29.79F WCI  27
QUINCY         CLOUDY    34  30  85 W16G25    29.78F WCI  24
ROCKFORD       FLURRIES  34  29  82 SW12      29.65S WCI  25
$$


CITY           SKY/WX    TMP DP  RH WIND       PRES   REMARKS
BURLINGTON     LGT SNOW  31  30  96 NW16G25   29.74S FOG     WCI  20
CEDAR RAPIDS   CLOUDY    24  18  77 NW25G41   29.74S WCI   8
DES MOINES     FLURRIES  25  16  68 NW23G31   29.87S WCI  10
KIRKSVILLE     CLOUDY    30  21  69 NW14G23   29.83F WCI  19
OTTUMWA        LGT SNOW  28  25  88 NW25G31   29.81R FOG     WCI  13
ST LOUIS       MOCLDY    38  29  70 W13       29.82F WCI  30
$$


CITY           SKY/WX    TMP DP  RH WIND       PRES   REMARKS
TERRE HAUTE    CLOUDY    35  31  85 NW7       29.74F WCI  29
EVANSVILLE     CLEAR     38  33  82 CALM      29.79F
INDIANAPOLIS   CLOUDY    37  30  75 SW9       29.70F WCI  30
LAFAYETTE      CLEAR     32  26  78 W5        29.70F WCI  27
MADISON        CLOUDY    33  31  92 VRB5      29.58F WCI  29
MILWAUKEE      PTCLDY    30  26  85 SW8       29.60F WCI  22
$$






USA.gov is the U.S. government's official web portal to all federal, state and local government web resources and services.